User: anonymous   Login
Location: Capannuccia
(43.7000°N, 11.3000°E)
Time: 08:22:29
(UTC+00:00)
Language:

STARLINK-2705 - Orbit

View from above orbital plane
View from above orbital plane
View from above satellite
View from above satellite

Ground track
Ground track

The orbit data is extracted from the following two-line orbital elements,

1 48672C 21044AL  21293.07918016 -.00008157  00000-0 -54638-3 0  2936
2 48672  53.0534 101.5136 0001777  86.5183 304.0528 15.06415617    18
Epoch (UTC): 20 October 2021 01:54:01
Eccentricity: 0.0001777
inclination: 53.0534°
perigee height: 546 km
apogee height: 548 km
right ascension of ascending node: 101.5136°
argument of perigee: 86.5183°
revolutions per day: 15.06415617
mean anomaly at epoch: 304.0528°
orbit number at epoch: 1

The dashed part of the orbit path shows where the satellite is in the earth's shadow,  

DLR